www.pogodaiklimat.ru

Погода и климат >> Архив погоды >> Россия >> Якутия >> Черский


ПОГОДА в Черском

  • Прогноз погоды в Черском
  • Монитор погоды в Черском
  • Климат города

АРХИВ ПОГОДЫ в Черском

Время (UTC), дата Ветер
(напр.,м/с)
 
Видим.   Явления Облачность Т
(С)
Тd
(С)
f
(%)
Тe
(С)
Тes
(С)
Комфортность P
(гПа)
Po
(гПа)
Тmin
(С)
Tmax
(С)
R
(мм)
R24
(мм)
S
(см)
18 20.06 С 2 20 км 10/8 240 м
[St Ac und]
+6.8 +5.5 91 +4 +5 1003.5 1000.4
21 20.06 С 3 20 км 5/4 300 м
[St Ci fib]
+9.0 +5.0 76 +7 +10 1004.9 1001.9 +4.9
00 21.06 З 3 20 км 9/8 360 м
[Sc As trans]
+8.9 +5.6 80 +6 +8 1006.3 1003.2
03 21.06 СЗ 4 20 км 10/10 480 м
[Sc]
+8.0 +5.1 82 +5 +5 1007.2 1004.1
06 21.06 СЗ 4 20 км 10/10 500 м
[Sc]
+6.0 +3.4 83 +2 +2 1008.1 1005.0
09 21.06 СЗ 4 20 км 10/10 330 м
[Sc]
+5.2 +2.5 83 +1 +1 1008.6 1005.5 +9.6
12 21.06 С 3 20 км 10/10 240 м
[Sc]
+4.9 +3.2 89 +1 +1 1009.0 1005.9
15 21.06 С 2 20 км 10/10 360 м
[Sc]
+4.4 +2.9 90 +2 +2 1008.8 1005.7
18 21.06 штиль 0 10 км дымка 10/10 200 м
[Frnb As trans]
+4.0 +2.8 92 +3 +3 1008.3 1005.2
21 21.06 штиль 0 20 км 10/10 330 м
[Sc]
+5.2 +4.5 95 +4 +4 1008.1 1005.0 +3.9
00 22.06 З 2 20 км 10/10 480 м
[Sc]
+6.5 +2.9 78 +4 +4 1008.1 1005.0
03 22.06 СЗ 2 20 км 9/4 600 м
[Sc Ac As Ci]
+7.8 +3.4 74 +6 +9 1007.6 1004.5
06 22.06 С 2 20 км слабый дождь 10/1 600 м
[Sc Ac As Ci ing]
+7.8 +4.3 79 +6 +8 1007.3 1004.2
09 22.06 СВ 1 20 км в посл. час дождь 8/3 300 м
[Sc diur, vesp Ac As Ci fib]
+8.1 +4.1 76 +7 +8 1007.6 1004.5 +8.8 0.3
12 22.06 штиль 0 20 км {дождь} 3/0
[Ci fib]
+6.1 +3.7 85 +5 +5 1007.6 1004.5
15 22.06 В 2 20 км 3/0
[Ci fib]
+4.3 +3.6 95 +1 +1 1007.6 1004.5
18 22.06 Ю 3 10 км дымка 10/10 240 м
[St]
+6.3 +6.1 99 +3 +3 1008.1 1005.0
21 22.06 ЮВ 3 20 км 9/9 270 м
[Sc]
+7.9 +6.4 90 +5 +6 1008.3 1005.2 +3.9
00 23.06 Ю 4 20 км 5/3 300 м
[Sc Ac trans]
+13.5 +7.1 65 +12 +16 1007.6 1004.6
03 23.06 Ю 4 20 км 8/0
[Ac trans Ci fib]
+18.9 +6.8 45 +19 +24 1005.3 1002.4
06 23.06 Ю 4 20 км 6/0
[Ci fib]
+20.6 +4.3 34 +21 +24 комфорт 1003.7 1000.8
09 23.06 Ю 3 20 км 8/0
[Ci fib]
+19.8 +5.6 39 +21 +22 комфорт 1001.1 998.2 +21.4
12 23.06 Ю 3 20 км 8/0
[Ac As Ci fib]
+16.8 +9.0 60 +17 +17 999.9 997.0
15 23.06 ЮВ 4 20 км 10/0
[Ac As Ci fib]
+14.7 +8.1 65 +14 +14 997.8 994.8
18 23.06 ЮВ 4
{10}
20 км 10/0
[Ac As]
+15.4 +8.8 65 +14 +15 996.1 993.1
21 23.06 Ю 4
{10}
20 км слабый дождь 10/0
[Ac und]
+16.4 +9.5 64 +16 +17 994.7 991.8 +14.5 0.0
00 24.06 ЮЗ 3 20 км слабый дождь 10/0
[Ac und]
+19.4 +10.3 56 +21 +23 комфорт 995.3 992.4
03 24.06 С 4 20 км слабый дождь 10/8 270 м
[Sc Ac und]
+8.6 +8.2 97 +5 +6 996.8 993.8
06 24.06 С 4 4000 м дождь 10/10 270 м
[Sc]
+7.0 +6.5 97 +3 +3 998.1 995.1
09 24.06 С 6-12
{14}
20 км в посл. час дождь 10/9 270 м
[Sc Ac As]
+5.2 +4.3 94 0 0 999.4 996.3 +19.7 5
12 24.06 С 7-13
{16}
20 км {дождь} 10/10 330 м
[Sc]
+4.2 +3.2 93 -2 -2 1002.3 999.2
15 24.06 С 6-13
{15}
20 км 10/10 240 м
[Sc]
+2.8 +2.0 94 -3 -3 1007.3 1004.2
18 24.06 С 6-11
{13}
10 км слабый снег 10/10 300 м
[Sc]
+0.6 -0.5 92 -6 -6 1009.9 1006.8
21 24.06 С 4
{10}
20 км слабый снег 8/5 300 м
[Sc Ac As]
+1.4 -2.1 77 -4 -2 1012.4 1009.2 0.0 0.0
00 25.06 С 4
{11}
20 км {снег} 8/8 840 м
[Cu med, cong]
+4.4 -1.0 68 0 +2 1013.5 1010.4
03 25.06 С 3 20 км слабый дождь 9/9 1230 м
[Cu med, cong]
+4.8 +0.7 75 +1 +2 1014.3 1011.2
06 25.06 штиль 0 20 км {дождь} 9/9 1500 м
[Cu med, cong]
+5.8 -1.2 61 +5 +6 1014.5 1011.4
09 25.06 СЗ 2 20 км слабый дождь 9/9 1140 м
[Cu med, cong]
+5.7 0.0 67 +4 +4 1015.2 1012.1 +5.8 0.0
12 25.06 СЗ 2 20 км 9/9 1440 м
[Cu med, cong]
+5.7 -1.6 59 +4 +4 1015.1 1012.0
15 25.06 СЗ 2 20 км 8/8 1320 м
[Cu med, cong]
+5.9 +0.2 67 +4 +4 1014.5 1011.4
18 25.06 З 2 20 км 4/4 1000 м
[Cu med, cong]
+5.9 +0.5 68 +4 +5 1013.6 1010.5
21 25.06 ЮЗ 3 20 км 8/4 1000 м
[Cu med, cong Ci fib]
+8.9 +0.2 54 +7 +9 1012.1 1009.0 +5.7 0.0
00 26.06 ЮЗ 4 20 км 10/5 600 м
[Sc diur, vesp As op]
+8.4 0.0 55 +6 +6 1010.5 1007.4
03 26.06 ЮЗ 4
{10}
20 км {дождь} 10/3 600 м
[Sc diur, vesp Ac As]
+9.7 +0.4 52 +7 +9 1008.6 1005.5
06 26.06 ЮЗ 5 20 км слабый дождь 10/8 1380 м
[Sc Ac As]
+10.8 +1.9 54 +8 +9 1006.4 1003.4
09 26.06 Ю 3 20 км слабый дождь 10/8 1050 м
[Sc Ac As]
+8.4 +5.5 82 +6 +6 1005.2 1002.2 +10.9 0.8
12 26.06 Ю 3 4000 м слабый дождь 10/10 270 м
[Sc]
+8.4 +7.6 95 +6 +6 1004.4 1001.4
15 26.06 Ю 4 20 км слабый дождь 10/10 400 м
[Sc]
+8.8 +8.2 96 +6 +6 1003.0 1000.0
18 26.06 ЮЗ 1 4000 м слабый дождь 10/10 240 м
[Sc]
+8.7 +8.2 97 +8 +8 1002.5 999.5
21 26.06 С 3 4000 м слабый дождь 10/10 270 м
[Sc]
+9.2 +8.8 97 +7 +7 1003.3 1000.3 +8.4 4
00 27.06 С 3 20 км {дождь, морось} 10/10 180 м
[St]
+8.8 +8.0 95 +6 +6 1004.5 1001.5 +8.1
03 27.06 С 3 20 км 9/9 300 м
[Sc]
+11.4 +8.5 82 +10 +10 1005.5 1002.5
06 27.06 С 4 20 км 3/3 600 м
[Cu med, cong Ci fib]
+13.4 +8.2 71 +12 +14 1005.9 1002.9
09 27.06 С 3 20 км 3/1 600 м
[Cu med, cong Ci fib]
+11.8 +5.8 67 +10 +11 1006.5 1003.5 +13.8 0.0
12 27.06 С 2 20 км 1/0
[Ci fib]
+8.2 +7.0 92 +6 +6 1007.1 1004.0
15 27.06 З 1 20 км 1/0
[Ci fib]
+4.3 +3.6 95 +3 +3 1006.8 1003.7

 

Местоположение метеостанции Черский (Якутия, Россия): широта 68.73 долгота 161.30 высота над уровнем моря 28 м.

В архиве по умолчанию представлена погода в Черском за последнюю неделю. Архивные данные за месяц целиком и за предыдущие месяцы, начиная с января 2011 года, Вы можете получить, выбрав интересующий диапазон дат из раскрывающегося списка и нажав кнопку "Ввод!".

Внимание! Время в таблицах - всемирное. Для получения местного времени необходимо прибавить поправку, которая в Черском равна 11 ч.

Смотрите также архив погоды в соседних городах и на ближайших метеорологических станциях:

Погода в Анюйске (Чукотка, Россия) (43 км)
Погода в Константиновской (Чукотка, Россия) (65 км)
Погода в Бухте Амбарчик (Чукотка, Россия) (107 км)
Погода в Колымской (Якутия, Россия) (109 км)
Погода на Островном (Чукотка, Россия) (133 км)
Погода в Билибино (Чукотка, Россия) (222 км)
Погода в Раучуе (Чукотка, Россия) (223 км)
Погода в Баимке (Чукотка, Россия) (274 км)
Погода в Андрюшкино (Якутия, Россия) (276 км)
Погода на Айон Острове (Чукотка, Россия) (291 км)

Пояснения к столбцам:

Ветер - указаны скорость ветра в м/с - средняя за 10 мин, порывы в срок и между сроками (в фигурных скобках) и направление, откуда дует ветер: С - северный, СВ - северо-восточный, В - восточный, ЮВ - юго-восточный, Ю - южный, ЮЗ - юго-западный, З - западный, СЗ - северо-западный.
Видимость - горизонтальная дальность видимости в метрах или километрах. При видимости от 1 до 10 км при отсутствии осадков обычно наблюдается дымка, при ухудшении видимости до 1 км и менее - туман. В сухую погоду видимость может ухудшаться дымом, пылью или мглою.
Явления - указаны атмосферные явления, наблюдавшиеся в срок или в последний час перед сроком; фигурными скобками обозначены явления, наблюдавшиеся между сроками (за 1-3 часа до срока); квадратными скобками обозначены град или гололедные отложения с указанием их диаметра в мм.
Облачность - указаны через наклонную черту общая и нижняя облачность в баллах и высота нижней границы облаков в метрах; квадратными скобками обозначены формы облаков: Ci - перистые, Cs - перисто-слоистые, Cc - перисто-кучевые, Ac - высококучевые, As - высокослоистые, Sc - слоисто-кучевые, Ns - слоисто-дождевые, Cu - кучевые, Cb - кучево-дождевые. Подробнее классификацию облаков см. в Атласе облаков (PDF).
T - Температура воздуха - температура, измеренная на высоте 2 м над землей.
Td - Температура точки росы - температура, при понижении до которой содержащийся в воздухе водяной пар достигнет насыщения.
f - Относительная влажность воздуха - влажноcть воздуха, измеренная на высоте 2 м над землей.
Te - Эффективная температура - температура, которую ощущает одетый по сезону человек в тени. Характеристика душности погоды. При расчете учитывается влияние влажности воздуха и скорости ветра на теплоощущения человека.
Tes - Эффективная температура на солнце - температура, которую ощущает человек, с поправкой на солнечный нагрев. Характеристика знойности погоды. Зависит от высоты солнца над горизонтом, облачности и скорости ветра. Ночью, в пасмурную погоду, а также при ветре 12 м/с и более поправка равна нулю.
P - Атмосферное давление - приведенное к уровню моря атмосферное давление.
Po - Атмосферное давление - измеренное на уровне метеостанции атмосферное давление.
Tmin - Минимальная температура - минимум температуры воздуха на высоте 2 м над землей.
Tmax - Максимальная температура - максимум температуры воздуха на высоте 2 м над землей.
R - Количество осадков - Количество выпавших осадков за период времени, мм. При наведении курсора мыши на число - период времени, за который выпало указанное количество осадков.
R24 - Количество осадков - Количество выпавших осадков за 24 часа, мм.
S - Снежный покров - Высота снежного покрова, см. При наведении курсора мыши на число - состояние снежного покрова и степень покрытия местности в баллах.